www.pogodaiklimat.ru

Погода и климат >> Архив погоды >> Австрия >> Луцмансбург


ПОГОДА в Луцмансбурге

  • Прогноз погоды в Луцмансбурге
  • Монитор погоды в Луцмансбурге

АРХИВ ПОГОДЫ в Луцмансбурге

Время (UTC), дата Ветер
(напр.,м/с)
 
Видим.   Явления Облачность Т
(С)
Тd
(С)
f
(%)
Тe
(С)
Тes
(С)
Комфортность P
(гПа)
Po
(гПа)
Тmin
(С)
Tmax
(С)
R
(мм)
R24
(мм)
S
(см)
19 18.08 Ю 3 н/о н/о +26.3 +17.8 60 +31 +31 душно 1012.1 989.5
20 18.08 Ю 2 н/о н/о +24.8 +17.7 65 +29 +29 душно 1012.3 989.6 0.0
21 18.08 Ю 1 н/о н/о +23.0 +17.7 72 +28 +28 душно 1012.7 989.8 0.0
22 18.08 ЮВ 1 н/о н/о +22.0 +17.8 77 +27 +27 душно 1012.7 989.7
23 18.08 Ю 2 н/о н/о +21.8 +17.8 78 +26 +26 душно 1012.3 989.3
01 19.08 Ю 2 н/о н/о +21.0 +17.5 80 +26 +26 душно 1011.9 988.9
02 19.08 Ю 3 н/о н/о +20.5 +17.3 82 +24 +24 комфорт 1011.8 988.7
03 19.08 Ю 3 н/о н/о +20.4 +16.9 80 +24 +24 комфорт 1012.0 988.9
04 19.08 штиль 0 н/о н/о +18.6 +16.3 86 +19 +19 1012.5 989.3
05 19.08 штиль 0 н/о н/о +18.7 +16.4 86 +20 +20 1013.6 990.4
06 19.08 штиль 0 н/о н/о +22.0 +17.6 76 +27 +27 душно 1014.3 991.3 +18.3 +27.7 0.0
07 19.08 ЮВ 1 н/о н/о +24.8 +18.0 66 +29 +29 душно 1014.6 991.8
08 19.08 штиль 0 н/о н/о +27.7 +16.9 52 +32 +32 очень
душно
1014.9 992.3
09 19.08 штиль 0 н/о н/о +28.8 +14.9 43 +31 +31 жарко 1015.0 992.5
10 19.08 штиль 0 н/о н/о +29.4 +13.7 38 +31 +31 жарко 1015.4 992.9
11 19.08 С 1 н/о н/о +30.1 +14.2 38 +32 +32 жарко 1015.3 992.9
12 19.08 СВ 1 н/о н/о +30.3 +15.0 39 +32 +32 жарко 1015.4 993.0
13 19.08 штиль 0 н/о н/о +30.7 +15.2 39 +33 +33 душно 1015.5 993.1
14 19.08 В 1 н/о н/о +30.8 +14.7 38 +33 +33 душно 1015.4 993.0
15 19.08 В 2 н/о н/о +31.0 +13.8 35 +32 +32 жарко 1015.1 992.7
16 19.08 В 1 н/о н/о +31.2 +14.2 36 +33 +33 жарко 1014.5 992.2
17 19.08 штиль 0 н/о н/о +28.9 +15.6 44 +32 +32 душно 1014.9 992.4
18 19.08 штиль 0 н/о н/о +25.8 +16.6 57 +29 +29 душно 1015.6 992.9 +21.0 +31.7
19 19.08 СЗ 1 н/о н/о +24.0 +15.5 59 +27 +27 жарко 1016.5 993.6
20 19.08 СЗ 3 н/о н/о +25.3 +15.1 53 +28 +28 жарко 1017.2 994.4
21 19.08 З 2 н/о н/о +24.2 +15.8 59 +27 +27 жарко 1017.6 994.7
22 19.08 З 2 н/о н/о +23.7 +16.0 62 +27 +27 жарко 1017.7 994.7
23 19.08 З 2 н/о н/о +22.7 +16.2 67 +27 +27 душно 1017.9 994.9
00 20.08 З 1 н/о н/о +22.2 +16.1 68 +26 +26 душно 1017.7 994.6
01 20.08 З 2 н/о н/о +21.4 +16.1 72 +25 +25 комфорт 1017.8 994.7
02 20.08 З 2 н/о н/о +21.0 +16.1 74 +25 +25 комфорт 1018.1 994.9
03 20.08 З 1 н/о н/о +20.9 +15.8 73 +25 +25 комфорт 1018.3 995.1
04 20.08 З 1 н/о н/о +19.6 +15.8 79 +23 +23 комфорт 1018.5 995.2
05 20.08 З 1 н/о н/о +20.0 +15.8 77 +24 +24 комфорт 1018.9 995.6
06 20.08 З 2 н/о н/о +22.5 +16.1 67 +27 +27 душно 1019.1 996.0 +19.3 +26.4
07 20.08 штиль 0 н/о н/о +24.8 +16.8 61 +28 +28 жарко 1018.8 995.9
08 20.08 С 1 н/о н/о +25.5 +17.1 60 +29 +29 душно 1018.8 996.0
09 20.08 штиль 0 н/о н/о +26.8 +17.3 56 +31 +31 душно 1018.7 996.0
10 20.08 В 2 н/о н/о +28.1 +17.6 53 +32 +32 душно 1018.4 995.8
11 20.08 СВ 1 н/о н/о +28.8 +17.7 51 +33 +33 очень
душно
1018.3 995.7
12 20.08 ЮВ 1 н/о н/о +29.8 +18.0 49 +34 +34 очень
душно
1017.7 995.2
13 20.08 ЮВ 2 н/о н/о +30.0 +18.3 50 +35 +35 очень
душно
1016.9 994.5
14 20.08 Ю 2 н/о н/о +31.5 +16.6 41 +35 +35 очень
душно
1016.6 994.3
15 20.08 Ю 3 н/о н/о +32.0 +17.6 42 +36 +36 очень
душно
1016.4 994.1
16 20.08 Ю 3 н/о н/о +30.8 +17.1 44 +35 +35 очень
душно
1016.2 993.8
17 20.08 Ю 2 н/о н/о +30.0 +17.3 46 +34 +34 очень
душно
1015.9 993.5
18 20.08 Ю 1 н/о н/о +27.9 +16.9 51 +32 +32 душно 1016.1 993.5 +21.9 +32.2
19 20.08 штиль 0 н/о н/о +23.9 +17.8 69 +28 +28 душно 1016.6 993.7
20 20.08 Ю 1 н/о н/о +21.7 +17.1 75 +26 +26 душно 1016.6 993.5
21 20.08 штиль 0 н/о н/о +20.6 +16.5 77 +24 +24 комфорт 1016.7 993.5
22 20.08 СЗ 1 н/о н/о +19.8 +16.7 82 +23 +23 комфорт 1016.7 993.5
23 20.08 СЗ 1 н/о н/о +19.8 +17.0 84 +23 +23 комфорт 1016.9 993.7
00 21.08 штиль 0 н/о н/о +21.2 +17.6 80 +25 +25 комфорт 1017.5 994.4
01 21.08 СЗ 2 н/о н/о +22.8 +17.6 72 +28 +28 душно 1018.3 995.3
02 21.08 СЗ 2 н/о н/о +23.2 +16.2 65 +28 +28 душно 1019.0 996.0
03 21.08 СЗ 3 н/о н/о +21.7 +14.6 64 +25 +25 комфорт 1020.0 996.8
04 21.08 СЗ 3 н/о н/о +19.5 +13.0 66 +21 +21 комфорт 1021.3 997.9
05 21.08 СЗ 3 н/о н/о +19.1 +12.4 65 +20 +20 1022.6 999.1
06 21.08 СЗ 4
{14}
н/о н/о +19.4 +12.0 62 +21 +21 комфорт 1023.8 1000.3 +19.1 +28.2
07 21.08 СЗ 4 н/о н/о +19.9 +11.9 60 +22 +22 комфорт 1024.3 1000.9
08 21.08 СЗ 5
{13}
н/о н/о +19.6 +11.7 60 +21 +21 комфорт 1024.8 1001.3
09 21.08 СЗ 2
{14}
н/о н/о +20.6 +12.4 59 +23 +23 комфорт 1025.2 1001.8
10 21.08 СЗ 4 н/о н/о +21.6 +12.9 58 +24 +24 комфорт 1025.1 1001.8
11 21.08 СЗ 3 н/о н/о +20.9 +12.8 60 +24 +24 комфорт 1025.3 1001.9
12 21.08 СЗ 2
{14}
н/о н/о +20.5 +12.2 59 +23 +23 комфорт 1025.5 1002.1
13 21.08 СЗ 3
{13}
н/о н/о +21.0 +12.4 58 +24 +24 комфорт 1025.4 1002.0
14 21.08 СЗ 2 н/о н/о +20.3 +12.5 61 +23 +23 комфорт 1025.5 1002.1
15 21.08 СЗ 3
{13}
н/о н/о +19.7 +12.4 63 +22 +22 комфорт 1025.7 1002.2 0.0
16 21.08 СЗ 3 н/о н/о +20.1 +12.0 60 +22 +22 комфорт 1025.5 1002.1
17 21.08 СЗ 2 н/о н/о +20.0 +12.0 60 +22 +22 комфорт 1025.3 1001.8
18 21.08 СЗ 2
{14}
н/о н/о +19.6 +11.9 61 +22 +22 комфорт 1025.4 1001.9 +19.3 +22.6 0.0
19 21.08 СЗ 3 н/о н/о +18.7 +11.8 64 +20 +20 1025.8 1002.2
20 21.08 СЗ 4 н/о н/о +18.4 +11.9 66 +19 +19 1025.9 1002.3
21 21.08 СЗ 3 н/о н/о +18.0 +11.9 68 +18 +18 1026.1 1002.5
22 21.08 СЗ 3 н/о н/о +17.7 +12.1 70 +18 +18 1026.4 1002.7
23 21.08 СЗ 3 н/о н/о +17.3 +12.0 71 +17 +17 1026.0 1002.3
00 22.08 СЗ 3 н/о н/о +17.0 +11.7 71 +17 +17 1025.6 1001.9
01 22.08 СЗ 2 н/о н/о +16.7 +11.9 73 +17 +17 1025.6 1001.9
02 22.08 СЗ 3 н/о н/о +16.5 +11.8 74 +16 +16 1025.3 1001.6
03 22.08 СЗ 4 н/о н/о +16.3 +11.9 75 +16 +16 1025.0 1001.3
04 22.08 СЗ 2 н/о н/о +16.1 +11.9 76 +16 +16 1025.1 1001.3
05 22.08 штиль 0 н/о н/о +16.4 +12.4 77 +16 +16 1024.7 1001.0 0.0
06 22.08 СЗ 1 н/о в посл. час осадки н/о +15.1 +13.9 93 +16 +16 1025.4 1001.6 +15.1 +19.8 3
07 22.08 СЗ 1 н/о в посл. час осадки н/о +15.8 +13.9 88 +16 +16 1024.8 1001.0 0.2
08 22.08 СЗ 1 н/о н/о +16.8 +14.1 84 +18 +18 1025.0 1001.3
09 22.08 СЗ 1 н/о в посл. час осадки н/о +18.7 +14.5 77 +21 +21 комфорт 1025.4 1001.9 0.2
10 22.08 штиль 0 н/о н/о +20.7 +15.2 71 +23 +23 комфорт 1024.8 1001.4
11 22.08 СЗ 1 н/о н/о +21.2 +14.4 65 +24 +24 комфорт 1024.3 1001.0
12 22.08 СВ 1 н/о {ливн. осадки} н/о +22.9 +14.8 60 +27 +27 душно 1023.9 1000.7 0.2
13 22.08 штиль 0 н/о н/о +22.7 +15.2 63 +27 +27 душно 1023.5 1000.3
14 22.08 штиль 0 н/о н/о +22.3 +14.4 61 +26 +26 жарко 1023.5 1000.3 0.0
15 22.08 штиль 0 н/о н/о +23.0 +15.7 63 +27 +27 душно 1023.2 1000.1 0.0
16 22.08 С 1 н/о н/о +22.2 +15.1 64 +26 +26 душно 1023.1 999.9
17 22.08 штиль 0 н/о н/о +22.0 +14.9 64 +25 +25 комфорт 1022.9 999.7
18 22.08 СЗ 1 н/о н/о +20.6 +15.4 72 +25 +25 комфорт 1023.2 999.9 +15.0 +23.4 0.2
19 22.08 СЗ 1 н/о н/о +19.6 +15.2 76 +23 +23 комфорт 1024.1 1000.7
20 22.08 З 1 н/о н/о +19.5 +15.1 76 +22 +22 комфорт 1024.7 1001.2
21 22.08 З 1 н/о н/о +19.2 +15.1 77 +22 +22 комфорт 1024.6 1001.1
22 22.08 З 1 н/о н/о +18.7 +15.1 80 +21 +21 комфорт 1024.6 1001.1
23 22.08 З 1 н/о н/о +18.6 +15.1 80 +21 +21 комфорт 1024.6 1001.1
00 23.08 З 1 н/о н/о +19.1 +15.2 78 +22 +22 комфорт 1024.4 1000.9
01 23.08 З 1 н/о н/о +19.1 +15.4 79 +22 +22 комфорт 1024.5 1001.0
02 23.08 З 2 н/о н/о +18.8 +15.9 83 +20 +20 1024.5 1001.0 0.0
03 23.08 З 1 н/о н/о +18.4 +15.8 85 +20 +20 1024.4 1000.9 0.0
04 23.08 З 1 н/о н/о +18.3 +15.9 86 +20 +20 1024.5 1001.0
05 23.08 З 2 н/о н/о +18.7 +15.5 82 +20 +20 1024.9 1001.4
06 23.08 СЗ 1 н/о н/о +19.2 +15.6 80 +22 +22 комфорт 1025.0 1001.5 +18.3 +20.8 0.0
07 23.08 штиль 0 н/о н/о +19.8 +15.3 75 +22 +22 комфорт 1025.3 1001.9
08 23.08 СЗ 1 н/о н/о +20.5 +14.8 70 +24 +24 комфорт 1025.5 1002.1
09 23.08 СЗ 1 н/о н/о +21.0 +14.9 68 +25 +25 комфорт 1025.6 1002.2 0.0
10 23.08 СЗ 1 н/о н/о +23.6 +15.2 59 +26 +26 жарко 1025.0 1001.9
11 23.08 С 1 н/о н/о +25.0 +15.8 57 +28 +28 жарко 1024.3 1001.3
12 23.08 штиль 0 н/о н/о +26.4 +17.0 56 +30 +30 душно 1023.8 1000.9 0.0
13 23.08 В 1 н/о н/о +27.4 +16.8 52 +31 +31 душно 1023.1 1000.3
14 23.08 ЮЗ 1 н/о н/о +28.0 +17.0 51 +32 +32 душно 1022.6 999.9
15 23.08 СВ 1 н/о н/о +27.5 +16.7 52 +31 +31 душно 1022.4 999.6
16 23.08 В 1 н/о н/о +27.7 +17.2 53 +32 +32 очень
душно
1021.8 999.1
17 23.08 В 2 н/о н/о +26.6 +16.8 55 +30 +30 душно 1021.6 998.8
18 23.08 штиль 0 н/о н/о +24.0 +17.5 67 +28 +28 душно 1022.0 999.0 +18.9 +28.2 0.0
19 23.08 штиль 0 н/о н/о +22.3 +16.9 71 +27 +27 душно 1022.8 999.6
20 23.08 З 1 н/о н/о +22.1 +17.3 74 +27 +27 душно 1022.8 999.6
21 23.08 З 1 н/о н/о +21.2 +17.1 77 +25 +25 комфорт 1022.5 999.3
22 23.08 З 1 н/о н/о +20.1 +16.9 82 +24 +24 комфорт 1022.4 999.1
23 23.08 З 1 н/о н/о +19.4 +16.7 84 +22 +22 комфорт 1022.4 999.0
00 24.08 З 2 н/о н/о +19.1 +16.6 85 +21 +21 комфорт 1022.3 998.9
01 24.08 З 1 н/о н/о +18.4 +16.4 88 +20 +20 1022.4 998.9
02 24.08 З 1 н/о н/о +18.2 +16.1 88 +20 +20 1022.2 998.7
04 24.08 З 2 н/о н/о +17.9 +15.9 88 +18 +18 1022.1 998.6
05 24.08 З 1 н/о н/о +17.9 +15.9 88 +19 +19 1022.1 998.6
06 24.08 З 1 н/о н/о +19.4 +16.6 84 +22 +22 комфорт 1022.0 998.6 +17.5 +24.4
07 24.08 СЗ 1 н/о н/о +22.8 +18.3 76 +28 +28 душно 1021.7 998.6
08 24.08 СЗ 1 н/о н/о +24.2 +18.6 71 +29 +29 душно 1021.6 998.6
09 24.08 штиль 0 н/о н/о +26.1 +18.5 63 +31 +31 очень
душно
1021.4 998.6
10 24.08 ЮВ 1 н/о н/о +27.8 +17.8 55 +32 +32 душно 1020.8 998.1
11 24.08 В 2 н/о н/о +28.2 +18.4 55 +33 +33 очень
душно
1020.4 997.7
12 24.08 ЮВ 2 н/о н/о +29.2 +17.7 50 +34 +34 очень
душно
1020.0 997.4
13 24.08 В 2 н/о н/о +29.4 +17.7 49 +34 +34 очень
душно
1019.5 996.9
14 24.08 В 2 н/о н/о +29.7 +16.2 44 +33 +33 душно 1018.7 996.2
15 24.08 В 2 н/о н/о +29.9 +16.2 44 +33 +33 душно 1018.3 995.8
16 24.08 В 2 н/о н/о +29.6 +16.6 46 +33 +33 душно 1018.3 995.8
17 24.08 штиль 0 н/о н/о +27.8 +17.8 55 +32 +32 душно 1018.2 995.6
18 24.08 СЗ 3 н/о н/о +25.4 +15.9 56 +29 +29 душно 1018.2 995.4 +18.9 +30.5 0.0
19 24.08 СЗ 4 н/о н/о +18.9 +18.0 95 +20 +20 1020.9 997.5 69
20 24.08 СЗ 4 н/о осадки н/о +18.7 +17.8 95 +20 +20 1021.2 997.8 3
21 24.08 Ю 1 н/о ливневой дождь {осадки} н/о +18.7 +17.5 93 +21 +21 комфорт 1020.8 997.4 73
22 24.08 З 1 н/о осадки н/о +18.5 +17.7 95 +20 +20 1020.2 996.8 2
23 24.08 З 2 н/о ливневой дождь н/о +18.3 +17.1 93 +19 +19 1020.3 996.9 0.5
00 25.08 З 2 н/о в посл. час осадки {ливн. осадки} н/о +18.3 +17.3 94 +19 +19 1020.2 996.8 77
01 25.08 З 3 н/о н/о +18.4 +17.1 92 +19 +19 1020.4 997.0
02 25.08 штиль 0 н/о н/о +18.0 +17.4 96 +18 +18 1019.9 996.5
03 25.08 ЮЗ 1 н/о в посл. час осадки н/о +17.7 +17.2 97 +19 +19 1020.3 996.8 0.1
04 25.08 ЮВ 1 н/о н/о +17.7 +17.3 98 +19 +19 1021.0 997.5
05 25.08 З 2 н/о н/о +18.1 +17.5 96 +19 +19 1020.8 997.4
06 25.08 СЗ 2 н/о {осадки} н/о +18.6 +17.8 95 +20 +20 1020.7 997.3 +17.6 +25.9 77
07 25.08 СЗ 1 н/о н/о +20.2 +18.3 89 +25 +25 комфорт 1020.6 997.3
08 25.08 СЗ 2 н/о н/о +21.1 +18.7 86 +25 +25 комфорт 1020.7 997.5
09 25.08 З 2 н/о н/о +21.9 +19.0 84 +27 +27 душно 1020.6 997.5
10 25.08 ЮЗ 1 н/о н/о +22.9 +19.0 79 +29 +29 очень
душно
1020.8 997.7
11 25.08 СЗ 1 н/о н/о +24.6 +19.0 71 +30 +30 очень
душно
1020.2 997.3
12 25.08 СЗ 1 н/о н/о +26.5 +19.2 64 +32 +32 очень
душно
1019.7 996.9
13 25.08 В 1 н/о н/о +26.8 +18.2 59 +31 +31 душно 1019.2 996.5
14 25.08 штиль 0 н/о н/о +27.0 +19.4 63 +33 +33 очень
душно
1018.7 996.0
15 25.08 В 1 н/о н/о +25.9 +19.0 66 +31 +31 очень
душно
1018.6 995.8
16 25.08 В 1 н/о н/о +26.4 +18.9 63 +31 +31 душно 1018.3 995.6
17 25.08 В 1 н/о н/о +26.1 +18.6 63 +31 +31 очень
душно
1018.5 995.7

 

Местоположение метеостанции Луцмансбург (Австрия): широта 47.47 долгота 16.65 высота над уровнем моря 200 м.

В архиве по умолчанию представлена погода в Луцмансбурге за последнюю неделю. Архивные данные за месяц целиком и за предыдущие месяцы, начиная с января 2011 года, Вы можете получить, выбрав интересующий диапазон дат из раскрывающегося списка и нажав кнопку "Ввод!".


*Определитесь, кто Вы:
робот инопланетянин человек

Внимание! Время в таблицах - всемирное. Для получения местного времени необходимо прибавить поправку, которая равна 1 ч.

Смотрите также архив погоды в соседних городах и на ближайших метеорологических станциях:

Погода в Сомбатхее (Венгрия) (22 км)
Погода в Шопроне (Венгрия) (24 км)
Погода в Крумбахе (Австрия) (35 км)
Погода в Бад-Тацмансдорфе (Австрия) (36 км)
Погода в Кляйнциккене (Австрия) (39 км)
Погода в Айзенштадте (Австрия) (43 км)
Погода в Андау (Австрия) (44 км)
Погода в Мёнихкирхене (Австрия) (47 км)
Погода в Винер-Нойштадт (Австрия) (51 км)
Погода в Хартберге (Австрия) (55 км)

Пояснения к столбцам:

Ветер - указаны скорость ветра в м/с - средняя за 10 мин, порывы в срок и между сроками (в фигурных скобках) и направление, откуда дует ветер: С - северный, СВ - северо-восточный, В - восточный, ЮВ - юго-восточный, Ю - южный, ЮЗ - юго-западный, З - западный, СЗ - северо-западный.
Видимость - горизонтальная дальность видимости в метрах или километрах. При видимости от 1 до 10 км при отсутствии осадков обычно наблюдается дымка, при ухудшении видимости до 1 км и менее - туман. В сухую погоду видимость может ухудшаться дымом, пылью или мглою.
Явления - указаны атмосферные явления, наблюдавшиеся в срок или в последний час перед сроком; фигурными скобками обозначены явления, наблюдавшиеся между сроками (за 1-3 часа до срока); квадратными скобками обозначены град или гололедные отложения с указанием их диаметра в мм.
Облачность - указаны через наклонную черту общая и нижняя облачность в баллах и высота нижней границы облаков в метрах; квадратными скобками обозначены формы облаков: Ci - перистые, Cs - перисто-слоистые, Cc - перисто-кучевые, Ac - высококучевые, As - высокослоистые, Sc - слоисто-кучевые, Ns - слоисто-дождевые, Cu - кучевые, Cb - кучево-дождевые. Подробнее классификацию облаков см. в Атласе облаков (PDF).
T - Температура воздуха - температура, измеренная на высоте 2 м над землей.
Td - Температура точки росы - температура, при понижении до которой содержащийся в воздухе водяной пар достигнет насыщения.
f - Относительная влажность воздуха - влажноcть воздуха, измеренная на высоте 2 м над землей.
Te - Эффективная температура - температура, которую ощущает одетый по сезону человек в тени. Характеристика душности погоды. При расчете учитывается влияние влажности воздуха и скорости ветра на теплоощущения человека.
Tes - Эффективная температура на солнце - температура, которую ощущает человек, с поправкой на солнечный нагрев. Характеристика знойности погоды. Зависит от высоты солнца над горизонтом, облачности и скорости ветра. Ночью, в пасмурную погоду, а также при ветре 12 м/с и более поправка равна нулю.
P - Атмосферное давление - приведенное к уровню моря атмосферное давление.
Po - Атмосферное давление - измеренное на уровне метеостанции атмосферное давление.
Tmin - Минимальная температура - минимум температуры воздуха на высоте 2 м над землей.
Tmax - Максимальная температура - максимум температуры воздуха на высоте 2 м над землей.
R - Количество осадков - Количество выпавших осадков за период времени, мм. При наведении курсора мыши на число - период времени, за который выпало указанное количество осадков.
R24 - Количество осадков - Количество выпавших осадков за 24 часа, мм.
S - Снежный покров - Высота снежного покрова, см. При наведении курсора мыши на число - состояние снежного покрова и степень покрытия местности в баллах.